Overview Statistics Trail Chart Weather Telemetry Raw packets
 

This is the latest recevied weather packets stored in our database for station/object K7SKM. If no packets are shown the sender has not sent any weather packets the latest 10 day(s).

<< 14 15 16 17 18 19 20 >>
Time Temp. Humidity Pressure Rain* Wind** Luminosity Snow
1788578735 14.44° C 76% 1020.2 hPa 0 mm - 0 W/m² -
1788578430 14.44° C 76% 1020 hPa 0 mm - 0 W/m² -
1788578126 15° C 75% 1020 hPa 0 mm - 0 W/m² -
1788577825 15° C 74% 1019.9 hPa 0 mm - 0 W/m² -
1788577521 15° C 74% 1020 hPa 0 mm - 0 W/m² -
1788577221 15.56° C 73% 1019.9 hPa 0 mm - 0 W/m² -
1788576916 15.56° C 73% 1019.9 hPa 0 mm - 0 W/m² -
1788576613 15.56° C 71% 1020.1 hPa 0 mm - 0 W/m² -
1788576307 15.56° C 71% 1019.9 hPa 0 mm - 0 W/m² -
1788576003 15.56° C 71% 1019.8 hPa 0 mm - 0 W/m² -
1788575697 15.56° C 70% 1019.8 hPa 0 mm - 0 W/m² -
1788575396 15.56° C 69% 1019.6 hPa 0 mm - 0 W/m² -
1788575092 16.11° C 68% 1019.8 hPa 0 mm - 2 W/m² -
1788574787 16.11° C 67% 1019.5 hPa 0 mm - 3 W/m² -
1788574487 16.11° C 68% 1019.8 hPa 0 mm - 5 W/m² -
1788574181 16.11° C 66% 1019.7 hPa 0 mm - 8 W/m² -
1788573876 16.11° C 66% 1019.9 hPa 0 mm - 11 W/m² -
1788573576 16.67° C 66% 1019.8 hPa 0 mm - 14 W/m² -
1788573274 16.67° C 65% 1019.9 hPa 0 mm - 18 W/m² -
1788572973 16.67° C 65% 1019.9 hPa 0 mm - 22 W/m² -
1788572669 16.67° C 65% 1019.7 hPa 0 mm - 25 W/m² -
1788572364 16.67° C 65% 1019.8 hPa 0 mm - 32 W/m² -
1788572061 16.67° C 66% 1019.7 hPa 0 mm - 36 W/m² -
1788571756 17.22° C 66% 1019.6 hPa 0 mm - 39 W/m² -
1788571451 17.22° C 64% 1019.8 hPa 0 mm - 42 W/m² -

* Rain latest hour (hover to see other rain measurements)
** Current wind speed in m/s (hover to see current wind gust speed)